Regional Weather Roundup
Issued by NWS

Home | Current Version | Previous Version | Text Only | Print | Product List | Glossary Off
Versions: 1 2 3 4 5 6 7 8 9 10 11 12 13 14 15 16 17 18 19 20 21 22 23 24 25 26 27 28 29 30 31 32 33 34 35 36 37 38 39 40 41 42 43 44 45 46 47 48 49

000
ASUS43 KDMX 010807
RWRIA

WEATHER ROUNDUP FOR IOWA
NATIONAL WEATHER SERVICE DES MOINES IA
300 AM CDT WED OCT 01 2014

NOTE: "FAIR" INDICATES FEW OR NO CLOUDS BELOW 12,000 FEET WITH NO
SIGNIFICANT WEATHER AND/OR OBSTRUCTIONS TO VISIBILITY.

* - THESE STATIONS ARE NOT NWS STATIONS...THUS NOT UNDER NWS
QUALITY CONTROL.  THEY ALSO DO NOT REPORT WEATHER SUCH
AS PRECIPITATION OR FOG.

IAZ001>003-012>014-020>022-031>034-043>046-010900-
   NORTHWEST IOWA

CITY           SKY/WX    TMP DP  RH WIND       PRES   REMARKS
CARROLL *      LGT RAIN  59  59 100 E6        29.80F
CHEROKEE *     CLOUDY    61  59  94 SE9       29.76F
DENISON *      MOCLDY    63  63 100 SE8G16    29.76F FOG
LE MARS *        N/A     63  61  94 VRB7G15   29.74F
ORANGE CITY *  CLOUDY    63  59  88 SE8       29.75F
SHELDON *      CLOUDY    61  59  94 SE10G16   29.75F
SIOUX CITY     CLOUDY    63  61  93 SE5       29.74S
SPENCER        CLOUDY    58  56  93 S10       29.79S
STORM LAKE *   CLOUDY    59  59 100 SE15G21   29.78F FOG
$$

IAZ055>058-069>071-079>083-090>094-010900-
   SOUTHWEST IOWA

CITY           SKY/WX    TMP DP  RH WIND       PRES   REMARKS
ATLANTIC *     LGT RAIN  64  63  94 SE9       29.74F
AUDUBON *      LGT RAIN  61  55  82 NE7       29.78F
CLARINDA *     CLOUDY    66  64  94 SE10      29.75F
COUNCIL BLFS * DRIZZLE   63  63 100 E10       29.73F
CRESTON *      LGT RAIN  63  63 100 E12       29.80F
HARLAN  *      LGT RAIN  63  63 100 NE6       29.81F
LAMONI         CLOUDY    66  60  81 VRB5      29.82R
RED OAK *      CLOUDY    66  64  94 CALM      29.75F
SHENANDOAH *   LGT RAIN  66  64  94 CALM      29.75S
$$

IAZ047>049-059>061-072>074-084-010900-
   CENTRAL IOWA

CITY           SKY/WX    TMP DP  RH WIND       PRES   REMARKS
AMES           LGT RAIN  58  56  93 S6        29.86R
ANKENY *       LGT RAIN  61  57  88 S3        29.85R
CHARITON *     CLOUDY    63  57  82 SE10G18   29.82F
DES MOINES     RAIN      63  58  83 SE3       29.83R
GRINNELL*      MOCLDY    55  50  82 E10       29.86F
KNOXVILLE *    CLOUDY    59  55  88 SE13      29.82F
MARSHALLTOWN   CLOUDY    55  49  80 SE10      29.86S
PELLA *        CLOUDY    57  54  88 SE10      29.86S
PERRY *        HVY RAIN  59  57  94 E6        29.83S
$$

IAZ004>006-015-016-023>025-035-036-010900-
   NORTH CENTRAL IOWA

CITY           SKY/WX    TMP DP  RH WIND       PRES   REMARKS
ALGONA *       CLOUDY    55  54  94 SE14G23   29.81F
CLARION *      LGT RAIN  54  54 100 SE14G20   29.84F
ESTHERVILLE    CLOUDY    57  55  93 S14       29.79S
FORT DODGE *   CLOUDY    55  54  94 SE8       29.84S
MASON CITY     CLOUDY    52  49  89 SE14      29.87F
FOREST CITY *  MOCLDY    54  50  87 SE16G23   29.84S
IOWA FALLS *   CLOUDY    54  50  87 SE10      29.86F
$$

IAZ007>011-017>019-026>030-037>042-050>054-066-010900-
   NORTHEAST IOWA

CITY           SKY/WX    TMP DP  RH WIND       PRES   REMARKS
CHARLES CITY * CLOUDY    52  46  82 SE12G20   29.89F
CLINTON *      CLEAR     50  45  81 E9        29.97F
DECORAH *      MOCLDY    46  45  93 VRB7G13   29.93F
MONTICELLO *   PTCLDY    50  48  93 SE13      29.94R
OELWEIN *      CLOUDY    50  46  87 SE13G20   29.91F
WATERLOO       CLOUDY    53  47  79 SE15      29.88F
$$

IAZ064-065-067-068-078-010900-
   EAST CENTRAL IOWA

CITY           SKY/WX    TMP DP  RH WIND       PRES   REMARKS
IOWA CITY      CLOUDY    53  49  86 SE10      29.92S
MT. PLEASANT * PTCLDY    54  48  82 E8        29.90S
MUSCATINE *    CLOUDY    54  48  82 E9G15     29.93S
$$

IAZ062-063-075>077-085>089-095>099-010900-
   SOUTHEAST IOWA

CITY           SKY/WX    TMP DP  RH WIND       PRES   REMARKS
BURLINGTON     CLEAR     54  50  86 SE10      29.90F
FAIRFIELD *    CLEAR     55  50  82 E10       29.87F
FORT MADISON * CLEAR     57  52  82 E9G18     29.90F HAZE
KEOKUK *       CLEAR     55  52  88 E13       29.88F
OSKALOOSA *      N/A     55  52  88 SE9       29.86F
CENTERVILLE *  CLEAR     59  57  94 E7        29.85F
OTTUMWA        PTCLDY    56  51  84 SE10      29.86F
WASHINGTON *   CLOUDY    54  50  87 E12       29.90S
$$

ABBREVIATIONS USED IN REMARKS
   TC - TEMPERATURES IN CELSIUS
  WCI - WIND CHILL INDEX
   HX - HEAT INDEX
  VSB - VISIBILITY
$$




USA.gov is the U.S. government's official web portal to all federal, state and local government web resources and services.